When you browse on this site, cookies collect data to enhance your experience and personalize the content and advertising you see.
Visit our Privacy Policy to learn more. By continuing to use the site, you agree to this use of cookies and data.
  • In Österreich
  • Länderverzeichnis
  • Für 7 Tage
  • Wassertemperatur
  • Wetterkarte
  • News
  • Widgets
  • user-avatar
    Anmelden

    Stündliche Wetter Zhitkovichi

    Heute, 18 August, Sonntag

    Zeit Temperatur Niederschläge Wind Luftdruck Luftfeuchtigkeit
    00:00 +14°C° 0 mm 1 m/S 748 mmHg 90%
    01:00 +13°C° 0 mm 1 m/S 748 mmHg 90%
    02:00 +13°C° 0 mm 1 m/S 748 mmHg 88%
    03:00 +13°C° 0 mm 1 m/S 748 mmHg 89%
    04:00 +13°C° 0 mm 2 m/S 748 mmHg 89%
    05:00 +12°C° 0 mm 2 m/S 748 mmHg 90%
    06:00 +14°C° 0 mm 2 m/S 748 mmHg 85%
    07:00 +16°C° 0 mm 2 m/S 748 mmHg 79%
    08:00 +18°C° 0 mm 2 m/S 748 mmHg 73%
    09:00 +20°C° 0 mm 2 m/S 748 mmHg 67%
    10:00 +21°C° 0 mm 2 m/S 748 mmHg 60%
    11:00 +24°C° 0 mm 2 m/S 748 mmHg 54%
    12:00 +25°C° 0 mm 2 m/S 748 mmHg 53%
    13:00 +25°C° 0 mm 3 m/S 748 mmHg 51%
    14:00 +26°C° 0 mm 3 m/S 748 mmHg 50%
    15:00 +26°C° 0 mm 2 m/S 748 mmHg 53%
    16:00 +26°C° 0 mm 2 m/S 748 mmHg 55%
    17:00 +25°C° 0 mm 2 m/S 748 mmHg 58%
    18:00 +23°C° 0 mm 1 m/S 749 mmHg 65%
    19:00 +21°C° 0 mm 1 m/S 749 mmHg 72%
    20:00 +17°C° 0 mm 0 m/S 749 mmHg 79%
    21:00 +19°C° 0 mm 1 m/S 749 mmHg 79%
    22:00 +18°C° 0 mm 1 m/S 749 mmHg 80%
    23:00 +17°C° 0 mm 2 m/S 749 mmHg 81%

    Morgen, 19 August, Montag

    Zeit Temperatur Niederschläge Wind Luftdruck Luftfeuchtigkeit
    00:00 +17°C° 0 mm 2 m/S 749 mmHg 82%
    01:00 +16°C° 0 mm 2 m/S 750 mmHg 83%
    02:00 +16°C° 0 mm 2 m/S 750 mmHg 83%
    03:00 +16°C° 0 mm 2 m/S 750 mmHg 84%
    04:00 +15°C° 0 mm 2 m/S 750 mmHg 84%
    05:00 +15°C° 0 mm 2 m/S 749 mmHg 84%
    06:00 +17°C° 0 mm 2 m/S 750 mmHg 81%
    07:00 +18°C° 0 mm 2 m/S 750 mmHg 78%
    08:00 +20°C° 0 mm 3 m/S 750 mmHg 75%
    09:00 +22°C° 0 mm 3 m/S 750 mmHg 70%
    10:00 +25°C° 0 mm 3 m/S 751 mmHg 64%
    11:00 +27°C° 0 mm 3 m/S 751 mmHg 59%
    12:00 +28°C° 0 mm 3 m/S 751 mmHg 57%
    13:00 +29°C° 0 mm 3 m/S 751 mmHg 54%
    14:00 +30°C° 0 mm 3 m/S 751 mmHg 52%
    15:00 +30°C° 0.1 mm 3 m/S 751 mmHg 55%
    16:00 +30°C° 0.1 mm 2 m/S 751 mmHg 58%
    17:00 +29°C° 0.1 mm 2 m/S 751 mmHg 61%
    18:00 +27°C° 0.1 mm 2 m/S 751 mmHg 67%
    19:00 +25°C° 0.1 mm 2 m/S 751 mmHg 74%
    20:00 +23°C° 0.1 mm 2 m/S 751 mmHg 81%
    21:00 +23°C° 0 mm 2 m/S 751 mmHg 83%
    22:00 +21°C° 0 mm 2 m/S 751 mmHg 85%
    23:00 +21°C° 0 mm 2 m/S 752 mmHg 87%

    übermorgen, 20 August, Dienstag

    Zeit Temperatur Niederschläge Wind Luftdruck Luftfeuchtigkeit
    00:00 +20°C° 0.5 mm 2 m/S 752 mmHg 88%
    01:00 +20°C° 0.5 mm 2 m/S 752 mmHg 88%
    02:00 +19°C° 0.5 mm 2 m/S 752 mmHg 89%
    03:00 +19°C° 0.2 mm 2 m/S 752 mmHg 90%
    04:00 +19°C° 0.2 mm 2 m/S 752 mmHg 91%
    05:00 +18°C° 0.2 mm 2 m/S 752 mmHg 91%
    06:00 +20°C° 0 mm 2 m/S 753 mmHg 88%
    07:00 +21°C° 0 mm 2 m/S 753 mmHg 84%
    08:00 +23°C° 0 mm 2 m/S 753 mmHg 80%
    09:00 +25°C° 0 mm 2 m/S 753 mmHg 74%
    10:00 +27°C° 0 mm 2 m/S 754 mmHg 67%
    11:00 +28°C° 0 mm 2 m/S 754 mmHg 61%
    12:00 +29°C° 0.1 mm 2 m/S 754 mmHg 60%
    13:00 +29°C° 0.1 mm 2 m/S 754 mmHg 58%
    14:00 +30°C° 0.1 mm 2 m/S 754 mmHg 56%
    15:00 +29°C° 0.5 mm 2 m/S 754 mmHg 62%
    16:00 +28°C° 0.5 mm 2 m/S 754 mmHg 69%
    17:00 +28°C° 0.5 mm 2 m/S 754 mmHg 75%
    18:00 +26°C° 0.1 mm 2 m/S 754 mmHg 81%
    19:00 +24°C° 0.1 mm 2 m/S 754 mmHg 87%
    20:00 +21°C° 0.1 mm 2 m/S 754 mmHg 92%
    21:00 +22°C° 0 mm 1 m/S 754 mmHg 93%
    22:00 +22°C° 0 mm 1 m/S 754 mmHg 94%
    23:00 +21°C° 0 mm 1 m/S 755 mmHg 94%

    21 August, Mittwoch

    Zeit Temperatur Niederschläge Wind Luftdruck Luftfeuchtigkeit
    00:00 +21°C° 0 mm 1 m/S 754 mmHg 94%
    01:00 +21°C° 0 mm 1 m/S 754 mmHg 95%
    02:00 +20°C° 0 mm 1 m/S 754 mmHg 95%
    03:00 +20°C° 0 mm 1 m/S 754 mmHg 94%
    04:00 +20°C° 0 mm 1 m/S 754 mmHg 93%
    05:00 +20°C° 0 mm 1 m/S 754 mmHg 93%
    06:00 +21°C° 0 mm 1 m/S 754 mmHg 89%
    07:00 +21°C° 0 mm 2 m/S 754 mmHg 84%
    08:00 +23°C° 0 mm 2 m/S 754 mmHg 80%
    09:00 +25°C° 0 mm 2 m/S 754 mmHg 71%
    10:00 +27°C° 0 mm 2 m/S 754 mmHg 62%
    11:00 +29°C° 0 mm 3 m/S 754 mmHg 53%
    12:00 +30°C° 0 mm 3 m/S 753 mmHg 50%
    13:00 +31°C° 0 mm 3 m/S 753 mmHg 48%
    14:00 +31°C° 0 mm 3 m/S 753 mmHg 45%
    15:00 +31°C° 0 mm 3 m/S 752 mmHg 48%
    16:00 +31°C° 0 mm 2 m/S 752 mmHg 51%
    17:00 +30°C° 0 mm 2 m/S 752 mmHg 54%
    18:00 +28°C° 0 mm 2 m/S 752 mmHg 59%
    19:00 +26°C° 0 mm 2 m/S 752 mmHg 64%
    20:00 +24°C° 0 mm 2 m/S 752 mmHg 69%
    21:00 +23°C° 0 mm 2 m/S 752 mmHg 71%
    22:00 +23°C° 0 mm 2 m/S 752 mmHg 73%
    23:00 +21°C° 0 mm 2 m/S 752 mmHg 76%

    22 August, Donnerstag

    Zeit Temperatur Niederschläge Wind Luftdruck Luftfeuchtigkeit
    00:00 +21°C° 0 mm 2 m/S 753 mmHg 81%
    01:00 +20°C° 0 mm 2 m/S 753 mmHg 87%
    02:00 +20°C° 0 mm 3 m/S 753 mmHg 92%
    03:00 +19°C° 0.1 mm 3 m/S 753 mmHg 92%
    04:00 +18°C° 0.1 mm 3 m/S 753 mmHg 92%
    05:00 +18°C° 0.1 mm 4 m/S 753 mmHg 91%
    06:00 +18°C° 0 mm 4 m/S 753 mmHg 89%
    07:00 +18°C° 0 mm 4 m/S 754 mmHg 87%
    08:00 +19°C° 0 mm 3 m/S 754 mmHg 86%
    09:00 +19°C° 0.1 mm 4 m/S 754 mmHg 85%
    10:00 +19°C° 0.1 mm 4 m/S 754 mmHg 84%
    11:00 +19°C° 0.1 mm 4 m/S 754 mmHg 83%
    12:00 +19°C° 0 mm 4 m/S 754 mmHg 81%
    13:00 +20°C° 0 mm 4 m/S 754 mmHg 79%
    14:00 +20°C° 0 mm 3 m/S 754 mmHg 77%
    15:00 +20°C° 0 mm 3 m/S 754 mmHg 76%
    16:00 +20°C° 0 mm 3 m/S 754 mmHg 76%
    17:00 +20°C° 0 mm 3 m/S 754 mmHg 76%
    18:00 +20°C° 0 mm 3 m/S 755 mmHg 77%
    19:00 +19°C° 0 mm 2 m/S 755 mmHg 78%
    20:00 +19°C° 0 mm 2 m/S 755 mmHg 80%
    21:00 +18°C° 0 mm 2 m/S 755 mmHg 81%
    22:00 +18°C° 0 mm 2 m/S 755 mmHg 82%
    23:00 +18°C° 0 mm 2 m/S 755 mmHg 83%

    23 August, Freitag

    Zeit Temperatur Niederschläge Wind Luftdruck Luftfeuchtigkeit
    00:00 +17°C° 0 mm 2 m/S 755 mmHg 85%
    01:00 +17°C° 0 mm 2 m/S 755 mmHg 87%
    02:00 +16°C° 0 mm 2 m/S 755 mmHg 89%
    03:00 +16°C° 0 mm 2 m/S 755 mmHg 90%
    04:00 +16°C° 0 mm 2 m/S 755 mmHg 90%
    05:00 +15°C° 0 mm 2 m/S 755 mmHg 90%
    06:00 +16°C° 0 mm 3 m/S 755 mmHg 86%
    07:00 +17°C° 0 mm 3 m/S 756 mmHg 82%
    08:00 +18°C° 0 mm 3 m/S 756 mmHg 78%
    09:00 +19°C° 0 mm 3 m/S 756 mmHg 72%
    10:00 +21°C° 0 mm 4 m/S 756 mmHg 65%
    11:00 +22°C° 0 mm 4 m/S 756 mmHg 58%
    12:00 +23°C° 0 mm 4 m/S 756 mmHg 56%
    13:00 +23°C° 0 mm 4 m/S 756 mmHg 55%
    14:00 +23°C° 0 mm 4 m/S 756 mmHg 53%
    15:00 +23°C° 0 mm 4 m/S 756 mmHg 55%
    16:00 +22°C° 0 mm 4 m/S 756 mmHg 56%
    17:00 +22°C° 0 mm 4 m/S 756 mmHg 58%
    18:00 +20°C° 0 mm 3 m/S 756 mmHg 64%
    19:00 +18°C° 0 mm 3 m/S 756 mmHg 71%
    20:00 +16°C° 0 mm 2 m/S 756 mmHg 77%
    21:00 +15°C° 0 mm 2 m/S 757 mmHg 81%
    22:00 +15°C° 0 mm 2 m/S 757 mmHg 85%
    23:00 +14°C° 0 mm 2 m/S 757 mmHg 89%
    Mehr zeigen